HVDC transfer

From www.emi.ea.govt.nz provided by the Electricity Authority (New Zealand)
Run at: 20240501200954

Parameters
Date range,24 Sep 2022 - 24 Sep 2022
Time scale,Trading period
Show,Average flow (MW)

Period start,Period end,Trading period,Direction,Energy transfer (GWh),Peak flow (MW),Average flow (MW)
24/09/2022 00:00:00,24/09/2022 00:30:00,1,Northward at Haywards,0.008,16,16
24/09/2022 00:30:00,24/09/2022 01:00:00,2,Northward at Haywards,0.011,22,22
24/09/2022 01:00:00,24/09/2022 01:30:00,3,Southward at Benmore,-0.007,-15,-15
24/09/2022 01:30:00,24/09/2022 02:00:00,4,Northward at Haywards,0.002,4,4
24/09/2022 02:00:00,24/09/2022 02:30:00,5,Northward at Haywards,0.011,22,22
24/09/2022 02:30:00,24/09/2022 03:00:00,6,Northward at Haywards,0.012,23,23
24/09/2022 03:00:00,24/09/2022 03:30:00,7,Northward at Haywards,0.007,13,13
24/09/2022 03:30:00,24/09/2022 04:00:00,8,Southward at Benmore,-0.004,-9,-9
24/09/2022 04:00:00,24/09/2022 04:30:00,9,Southward at Benmore,-0.007,-14,-14
24/09/2022 04:30:00,24/09/2022 05:00:00,10,Southward at Benmore,-0.004,-9,-9
24/09/2022 05:00:00,24/09/2022 05:30:00,11,Northward at Haywards,0.008,16,16
24/09/2022 05:30:00,24/09/2022 06:00:00,12,Northward at Haywards,0.018,36,36
24/09/2022 06:00:00,24/09/2022 06:30:00,13,Northward at Haywards,0.079,157,157
24/09/2022 06:30:00,24/09/2022 07:00:00,14,Northward at Haywards,0.084,167,167
24/09/2022 07:00:00,24/09/2022 07:30:00,15,Northward at Haywards,0.085,169,169
24/09/2022 07:30:00,24/09/2022 08:00:00,16,Northward at Haywards,0.119,237,237
24/09/2022 08:00:00,24/09/2022 08:30:00,17,Northward at Haywards,0.132,264,264
24/09/2022 08:30:00,24/09/2022 09:00:00,18,Northward at Haywards,0.136,271,271
24/09/2022 09:00:00,24/09/2022 09:30:00,19,Northward at Haywards,0.163,325,325
24/09/2022 09:30:00,24/09/2022 10:00:00,20,Northward at Haywards,0.159,318,318
24/09/2022 10:00:00,24/09/2022 10:30:00,21,Northward at Haywards,0.155,309,309
24/09/2022 10:30:00,24/09/2022 11:00:00,22,Northward at Haywards,0.151,301,301
24/09/2022 11:00:00,24/09/2022 11:30:00,23,Northward at Haywards,0.126,251,251
24/09/2022 11:30:00,24/09/2022 12:00:00,24,Northward at Haywards,0.124,247,247
24/09/2022 12:00:00,24/09/2022 12:30:00,25,Northward at Haywards,0.108,216,216
24/09/2022 12:30:00,24/09/2022 13:00:00,26,Northward at Haywards,0.100,199,199
24/09/2022 13:00:00,24/09/2022 13:30:00,27,Northward at Haywards,0.091,181,181
24/09/2022 13:30:00,24/09/2022 14:00:00,28,Northward at Haywards,0.069,137,137
24/09/2022 14:00:00,24/09/2022 14:30:00,29,Northward at Haywards,0.056,112,112
24/09/2022 14:30:00,24/09/2022 15:00:00,30,Northward at Haywards,0.060,119,119
24/09/2022 15:00:00,24/09/2022 15:30:00,31,Northward at Haywards,0.059,118,118
24/09/2022 15:30:00,24/09/2022 16:00:00,32,Northward at Haywards,0.060,119,119
24/09/2022 16:00:00,24/09/2022 16:30:00,33,Northward at Haywards,0.029,58,58
24/09/2022 16:30:00,24/09/2022 17:00:00,34,Northward at Haywards,0.001,2,2
24/09/2022 17:00:00,24/09/2022 17:30:00,35,Northward at Haywards,0.023,45,45
24/09/2022 17:30:00,24/09/2022 18:00:00,36,Northward at Haywards,0.034,68,68
24/09/2022 18:00:00,24/09/2022 18:30:00,37,Northward at Haywards,0.075,149,149
24/09/2022 18:30:00,24/09/2022 19:00:00,38,Northward at Haywards,0.127,253,253
24/09/2022 19:00:00,24/09/2022 19:30:00,39,Northward at Haywards,0.105,210,210
24/09/2022 19:30:00,24/09/2022 20:00:00,40,Northward at Haywards,0.081,162,162
24/09/2022 20:00:00,24/09/2022 20:30:00,41,Northward at Haywards,0.082,164,164
24/09/2022 20:30:00,24/09/2022 21:00:00,42,Northward at Haywards,0.087,174,174
24/09/2022 21:00:00,24/09/2022 21:30:00,43,Northward at Haywards,0.086,171,171
24/09/2022 21:30:00,24/09/2022 22:00:00,44,Northward at Haywards,0.093,186,186
24/09/2022 22:00:00,24/09/2022 22:30:00,45,Northward at Haywards,0.046,92,92
24/09/2022 22:30:00,24/09/2022 23:00:00,46,Northward at Haywards,0.010,19,19
24/09/2022 23:00:00,24/09/2022 23:30:00,47,Southward at Benmore,-0.005,-10,-10
24/09/2022 23:30:00,25/09/2022 00:00:00,48,Southward at Benmore,-0.050,-101,-101
